This is the latest recevied weather packets stored in our database for station/object W5ALL-WX. If no packets are shown the sender has not sent any weather packets the latest 10 day(s).
| Time | Temp. | Humidity | Pressure | Rain* | Wind** | Luminosity | Snow |
|---|---|---|---|---|---|---|---|
| 1777069894 | 27.22° C | 8% | 1008.6 hPa | 0 mm | - | - | - |
| 1777069594 | 27.22° C | 8% | 1008.9 hPa | 0 mm | - | - | - |
| 1777069294 | 27.22° C | 7% | 1009 hPa | 0 mm | - | - | - |
| 1777068994 | 26.67° C | 7% | 1009 hPa | 0 mm | - | - | - |
| 1777068694 | 26.67° C | 7% | 1009 hPa | 0 mm | - | - | - |
| 1777068394 | 26.67° C | 7% | 1009.1 hPa | 0 mm | - | - | - |
| 1777068095 | 27.78° C | 6% | 1009.2 hPa | 0 mm | - | - | - |
| 1777067794 | 27.78° C | 6% | 1009.2 hPa | 0 mm | - | - | - |
| 1777067494 | 27.78° C | 6% | 1009.2 hPa | 0 mm | - | - | - |
| 1777067194 | 27.22° C | 6% | 1009.3 hPa | 0 mm | - | - | - |
| 1777066894 | 26.67° C | 6% | 1009.6 hPa | 0 mm | - | - | - |
| 1777066594 | 26.67° C | 6% | 1009.6 hPa | 0 mm | - | - | - |
| 1777066294 | 26.67° C | 6% | 1009.6 hPa | 0 mm | - | - | - |
| 1777065994 | 27.22° C | 6% | 1009.7 hPa | 0 mm | - | - | - |
| 1777065694 | 26.67° C | 6% | 1009.8 hPa | 0 mm | - | - | - |
| 1777065394 | 26.67° C | 6% | 1009.9 hPa | 0 mm | - | - | - |
| 1777065094 | 26.11° C | 6% | 1009.9 hPa | 0 mm | - | - | - |
| 1777064794 | 25.56° C | 6% | 1010.1 hPa | 0 mm | - | - | - |
| 1777064494 | 25.56° C | 7% | 1010.3 hPa | 0 mm | - | - | - |
| 1777064194 | 25.56° C | 7% | 1010.3 hPa | 0 mm | - | - | - |
| 1777063894 | 25.56° C | 7% | 1010.4 hPa | 0 mm | - | - | - |
| 1777063594 | 26.11° C | 6% | 1010.5 hPa | 0 mm | - | - | - |
| 1777063294 | 25.56° C | 7% | 1010.5 hPa | 0 mm | - | - | - |
| 1777062994 | 25.56° C | 7% | 1010.5 hPa | 0 mm | - | - | - |
| 1777062694 | 26.11° C | 6% | 1010.5 hPa | 0 mm | - | - | - |
* Rain latest hour (hover to see other rain measurements)
** Current wind speed in m/s (hover to see current wind gust speed)